This is the latest recevied weather packets stored in our database for station/object KB4RFE. If no packets are shown the sender has not sent any weather packets the latest 10 day(s).
| Time | Temp. | Humidity | Pressure | Rain* | Wind** | Luminosity | Snow |
|---|---|---|---|---|---|---|---|
| 1777569566 | 25° C | 76% | 1011.7 hPa | 0 mm | - | 461 W/m² | - |
| 1777569262 | 25° C | 77% | 1011.5 hPa | 0 mm | - | 469 W/m² | - |
| 1777568959 | 24.44° C | 80% | 1011.6 hPa | 0 mm | - | 427 W/m² | - |
| 1777568655 | 24.44° C | 80% | 1011.6 hPa | 0 mm | - | 405 W/m² | - |
| 1777568353 | 24.44° C | 79% | 1011.7 hPa | 0 mm | - | 361 W/m² | - |
| 1777568050 | 23.89° C | 78% | 1011.8 hPa | 0 mm | - | 60 W/m² | - |
| 1777567746 | 23.89° C | 80% | 1011.9 hPa | 0 mm | - | 269 W/m² | - |
| 1777567442 | 23.89° C | 80% | 1012 hPa | 0 mm | - | 231 W/m² | - |
| 1777567140 | 23.89° C | 79% | 1011.9 hPa | 0 mm | - | 192 W/m² | - |
| 1777566838 | 23.89° C | 79% | 1011.9 hPa | 0 mm | - | 228 W/m² | - |
| 1777566536 | 23.89° C | 78% | 1012 hPa | 0 mm | - | 285 W/m² | - |
| 1777566233 | 23.89° C | 79% | 1012.1 hPa | 0 mm | - | 325 W/m² | - |
| 1777565930 | 23.89° C | 78% | 1012 hPa | 0 mm | - | 411 W/m² | - |
| 1777565625 | 23.89° C | 79% | 1012.1 hPa | 0 mm | - | 356 W/m² | - |
| 1777565322 | 23.89° C | 80% | 1012 hPa | 0 mm | - | 405 W/m² | - |
| 1777565018 | 23.33° C | 81% | 1012 hPa | 0 mm | - | 430 W/m² | - |
| 1777564714 | 23.33° C | 81% | 1012 hPa | 0 mm | - | 395 W/m² | - |
| 1777564409 | 22.78° C | 83% | 1012.2 hPa | 0 mm | - | 370 W/m² | - |
| 1777564106 | 22.78° C | 82% | 1012 hPa | 0 mm | - | 384 W/m² | - |
| 1777563801 | 22.78° C | 83% | 1012.1 hPa | 0 mm | - | 314 W/m² | - |
| 1777563498 | 22.78° C | 84% | 1012.2 hPa | 0 mm | - | 314 W/m² | - |
| 1777563197 | 22.78° C | 84% | 1012.1 hPa | 0 mm | - | 343 W/m² | - |
| 1777562894 | 22.78° C | 85% | 1012.2 hPa | 0 mm | - | 370 W/m² | - |
| 1777562590 | 22.78° C | 86% | 1012.1 hPa | 0 mm | - | 362 W/m² | - |
| 1777562289 | 22.78° C | 88% | 1012.1 hPa | 0 mm | - | 455 W/m² | - |
* Rain latest hour (hover to see other rain measurements)
** Current wind speed in m/s (hover to see current wind gust speed)